Regional Weather Roundup
Issued by NWS

Home | Current Version | Previous Version | Graphics & Text | Print | Product List | Glossary On
Versions: 1 2 3 4 5 6 7 8 9 10 11 12 13 14 15 16 17 18 19 20 21 22 23 24 25 26 27
000
ASUS45 KBOU 152106
RWRCO

WEATHER ROUNDUP FOR COLORADO
NATIONAL WEATHER SERVICE DENVER/BOULDER CO
300 PM MDT TUE APR 15 2014

NOTE: "FAIR" INDICATES FEW OR NO CLOUDS BELOW 12000 FEET WITH NO
SIGNIFICANT WEATHER AND/OR OBSTRUCTIONS TO VISIBILITY.

COZ001>005-013-030-031-152200-
...NORTHWEST COLORADO...

CITY           SKY/WX    TMP DP  RH WIND       PRES   REMARKS
CRAIG          SUNNY     56  22  26 W20       29.91F
HAYDEN         SUNNY     54  19  26 SW21      29.94F
MEEKER         MOSUNNY   55  21  26 SW14      29.94F
MOUNT WERNER   SUNNY     34  12  40 SW12G18   30.03F WCI  25
STEAMBOAT SPGS SUNNY     49  19  30 SE6       29.93F
WALDEN         SUNNY     39  16  38 SW24G35   29.93F
$$

COZ006>008-011-152200-
...WEST CENTRAL VALLEYS...

CITY           SKY/WX    TMP DP  RH WIND       PRES   REMARKS
GRAND JUNCTION PTSUNNY   56  18  22 NE7       29.97F
MONTROSE       PTSUNNY   57  19  22 CALM      30.00F
EAGLE          MOSUNNY   54  14  20 W17G26    29.96
RIFLE          PTSUNNY   55  16  21 CALM      29.96F
DELTA          PTSUNNY   59  17  19 CALM      29.98F
NUCLA            N/A     57  14  18 CALM      30.04F
$$

COZ017>023-064>068-152200-
...SOUTHWEST COLORADO...

CITY           SKY/WX    TMP DP  RH WIND       PRES   REMARKS
DURANGO        MOSUNNY   59   5  11 SW18G25   30.03F
CORTEZ         SUNNY     60   6  11 SW6       30.03F
PAGOSA SPRINGS MOSUNNY   55   2  12 SW10G23   30.05F
TELLURIDE      PTSUNNY   46   9  21 W9G21     30.09F
WOLF CREEK PAS SUNNY     32  10  40 SW22G30   30.16F WCI  19
$$

COZ009-010-012-014-032>034-037-058>063-152200-
...CENTRAL COLORADO...

CITY           SKY/WX    TMP DP  RH WIND       PRES   REMARKS
ASPEN          PTSUNNY   53   8  16 N8        29.98F
BUENA VISTA    MOSUNNY   55   3  12 W24G39    29.95S
COPPER MTN     PTSUNNY   34   7  32 W21G33    30.06F WCI  22
BERTHOUD PASS  CLOUDY    25  16  68 W32G40    30.04F WCI   7
COTTONWOOD PAS MOSUNNY   45  -4  13 W22G37    29.99F
GUNNISON       PTSUNNY   52   7  16 W18       30.05F
KREMMLING      PTSUNNY   48  27  43 SE7       29.96F
LEADVILLE      PTSUNNY   38   5  25 W17G29    30.02F
MONARCH PASS   MOSUNNY   28  10  47 W37G46    30.20F WCI  11
SALIDA         MOSUNNY   58   6  12 W14G30    30.04S
SUNLIGHT       CLOUDY    37  21  52 CALM      30.07F
WILKERSON PASS MOSUNNY   37   9  30 W13G24    30.05F
$$

COZ069>075-152200-
...SAN LUIS VALLEY/SANGRE DE CRISTO MOUNTAINS...

CITY           SKY/WX    TMP DP  RH WIND       PRES   REMARKS
ALAMOSA        SUNNY     57  13  17 VRB3      29.95F
LA VETA PASS   SUNNY     45  12  26 SW8G21    30.05F
SAGUACHE       MOSUNNY   54  12  19 S6        29.98F
$$

COZ035-036-038>040-152200-
...NORTHERN COLORADO FRONT RANGE...

CITY           SKY/WX    TMP DP  RH WIND       PRES   REMARKS
DENVER INTL AP CLOUDY    61  19  19 E3        29.80F
DMNS CITY PARK   N/A     63  14  15 NW12      29.78F
AURORA         PTSUNNY   63  21  20 N12       29.81F
FRONT RANGE AP PTSUNNY   63  21  20 CALM      29.82F
ERIE MUNI ARPT CLOUDY    62  14  15 NW5       29.79F
BOULDER MUN AP CLOUDY    63  19  19 E8        29.78F
CENTENNIAL     CLOUDY    62  17  17 NW14      29.81F
BROOMFIELD     PTSUNNY   63  16  16 W28G37    29.89R
FORT COLLINS   CLOUDY    63  27  25 SW18      29.78F
LONGMONT       CLOUDY    64  15  15 W14G26    29.79F
$$

COZ041-046-047-076>085-087-088-152200-
...PIKES PEAK/PALMER DIVIDE AND SOUTHERN FOOTHILLS...

CITY           SKY/WX    TMP DP  RH WIND       PRES   REMARKS
COLO. SPRINGS  PTSUNNY   60  21  22 SE10      29.86F
A. F. ACADEMY  PTSUNNY   57  18  22 SE6       29.86F
ELLICOTT       NOT AVBL
FALCON         PTSUNNY   58  22  25 S13G20    29.89F
FORT CARSON    PTSUNNY   64  22  20 E6        29.83F
LIMON          CLOUDY    60  17  18 S17       29.84F
MONUMENT HILL  CLOUDY    55  19  24 SW12G17   29.85F
TRINIDAD       MOSUNNY   65  20  17 SW9       29.87F
$$

COZ042>045-048>051-090-091-152200-
...NORTHEAST COLORADO...

CITY           SKY/WX    TMP DP  RH WIND       PRES   REMARKS
GREELEY ARPT   CLOUDY    61  34  36 E7        29.79F
AKRON          PTSUNNY   59  26  28 S16       29.80F
BURLINGTON     PTSUNNY   63  13  14 S21G29    29.85F
WRAY           PTSUNNY   68  22  17 W13G21    29.81F
STERLING       PTSUNNY   64  34  32 S12       29.76F
HOLYOKE        PTSUNNY   63  30  29 SW16G26   29.80F
FORT MORGAN    CLOUDY    60  24  24 W12G18    29.79F
$$

COZ086-089-092>099-152200-
...SOUTHEAST COLORADO...

CITY           SKY/WX    TMP DP  RH WIND       PRES   REMARKS
PUEBLO         MOSUNNY   66  17  15 W12       29.81F
LA JUNTA       MOSUNNY   69  15  12 S14G22    29.82F
LAMAR          PTSUNNY   69  14  12 S10G21    29.83F
SPRINGFIELD    NOT AVBL
$$



USA.gov is the U.S. government's official web portal to all federal, state and local government web resources and services.